Boothville, LA

6:46 PM CDT on September 22, 2017 (GMT -0500)
Boothville

Weather History for KBVE - October, 2013

Change the Weather History Date:

Thursday, October 3, 2013

  Actual Average (KAXO) Record (KAXO)
Temperature  
Mean Temperature 80 °F -  
Max Temperature 86 °F 76 °F 86 °F (2016)
Min Temperature 75 °F 74 °F 66 °F (2015)
Cooling Degree Days 14    
Growing Degree Days 30 (Base 50)    
Moisture  
Dew Point 74 °F    
Average Humidity 87    
Maximum Humidity 94    
Minimum Humidity 72    
Precipitation  
Precipitation 0.73 in - - ()
Sea Level Pressure  
Sea Level Pressure 29.98 in    
Wind  
Wind Speed 7 mph (ESE)    
Max Wind Speed 18 mph    
Max Gust Speed 23 mph    
Visibility 7 miles    
Events Rain    
Averages and records for this station are not official NWS values.
T = Trace of Precipitation, MM = Missing Value Source: NWS Daily Summary

Daily Weather History Graph

Daily Weather History Graph

Search for Another Location

Airport or City:

Trip Planner

Search our weather history database for the weather conditions in past years. The results will help you decide how hot, cold, wet, or windy it might be!

Date:

Astronomy

Oct. 03, 2013 Rise Set
Actual Time 6:52 AM CDT 6:40 PM CDT
Civil Twilight 6:28 AM CDT 7:04 PM CDT
Nautical Twilight 6:00 AM CDT 7:31 PM CDT
Astronomical Twilight 5:33 AM CDT 7:59 PM CDT
Moon 5:29 AM CDT (10/3) 5:47 PM CDT (10/3)
Length of Visible Light 12h 35m
Length of Day
11h 48m
Waning Crescent, 2% of the Moon is Illuminated
Oct 3
Waning Crescent
Oct 4
New
Oct 11
First Quarter
Oct 18
Full
Oct 26
Last Quarter

Hourly Weather History & Observations

Time (CDT) Temp. Heat Index Dew Point Humidity Pressure Visibility Wind Dir Wind Speed Gust Speed Precip Events Conditions
12:51 AM 79.0 °F - 75.0 °F 88% 30.00 in 10.0 mi ESE 8.1 mph - N/A   Clear
1:51 AM 78.1 °F - 75.0 °F 90% 29.99 in 10.0 mi SE 4.6 mph - N/A   Clear
2:51 AM 78.1 °F - 73.9 °F 87% 29.97 in 10.0 mi ESE 3.5 mph - N/A   Clear
3:51 AM 78.1 °F - 73.0 °F 84% 29.96 in 10.0 mi ESE 3.5 mph - N/A   Clear
4:51 AM 78.1 °F - 73.0 °F 84% 29.96 in 10.0 mi ESE 3.5 mph - N/A   Clear
5:51 AM 78.1 °F - 73.0 °F 84% 29.96 in 10.0 mi East 3.5 mph - N/A   Partly Cloudy
6:51 AM 78.1 °F - 73.9 °F 87% 29.97 in 10.0 mi ESE 3.5 mph - N/A   Clear
7:51 AM 79.0 °F - 73.9 °F 84% 29.99 in 10.0 mi ESE 4.6 mph - N/A   Clear
8:51 AM 82.0 °F 88.6 °F 75.0 °F 79% 30.01 in 10.0 mi East 5.8 mph - N/A   Clear
9:51 AM 82.9 °F 90.2 °F 75.0 °F 77% 30.02 in 10.0 mi ESE 6.9 mph - N/A   Partly Cloudy
10:51 AM 84.0 °F 91.2 °F 73.9 °F 72% 30.03 in 10.0 mi East 10.4 mph - N/A   Partly Cloudy
11:51 AM 84.0 °F 91.2 °F 73.9 °F 72% 30.01 in 10.0 mi ESE 9.2 mph - N/A   Mostly Cloudy
12:51 PM 84.9 °F 93.3 °F 75.0 °F 72% 30.00 in 10.0 mi East 11.5 mph - N/A   Scattered Clouds
1:18 PM 80.6 °F 85.4 °F 73.4 °F 79% 30.00 in 6.0 mi SE 9.2 mph - 0.00 in Rain Light Rain
1:30 PM 78.8 °F - 75.2 °F 89% 29.99 in 8.0 mi ESE 10.4 mph - 0.01 in Rain Light Rain
1:51 PM 79.0 °F - 75.0 °F 88% 29.98 in 8.0 mi ESE 6.9 mph - 0.02 in Rain Light Rain
2:51 PM 80.1 °F 85.4 °F 75.9 °F 87% 29.96 in 10.0 mi ESE 6.9 mph - 0.00 in   Scattered Clouds
3:51 PM 81.0 °F 86.7 °F 75.0 °F 82% 29.95 in 4.0 mi East 6.9 mph - 0.00 in Rain Light Rain
3:59 PM 80.6 °F 86.2 °F 75.2 °F 84% 29.95 in 2.0 mi ENE 5.8 mph - 0.05 in Rain Light Rain
4:07 PM 80.6 °F 86.2 °F 75.2 °F 84% 29.94 in 10.0 mi ENE 6.9 mph - 0.05 in   Mostly Cloudy
4:21 PM 77.0 °F - 73.4 °F 89% 29.95 in 9.0 mi SSE 10.4 mph 20.7 mph 0.05 in Rain Light Rain
4:35 PM 77.0 °F - 75.2 °F 94% 29.95 in 2.0 mi South 12.7 mph - 0.06 in Rain Rain
4:37 PM 77.0 °F - 75.2 °F 94% 29.95 in 1.8 mi South 9.2 mph - 0.07 in Rain Heavy Rain
4:42 PM 77.0 °F - 75.2 °F 94% 29.96 in 1.2 mi SSE 6.9 mph - 0.11 in Rain Heavy Rain
4:51 PM 77.0 °F - 73.9 °F 90% 29.96 in 2.0 mi SE 6.9 mph - 0.16 in Rain Rain
5:23 PM 77.0 °F - 73.4 °F 89% 29.97 in 1.8 mi East 4.6 mph - 0.11 in Rain Rain
5:45 PM 77.0 °F - 73.4 °F 89% 29.96 in 2.0 mi ENE 5.8 mph - 0.19 in Rain Light Rain
5:51 PM 77.0 °F - 75.0 °F 94% 29.96 in 4.0 mi NE 5.8 mph - 0.20 in Rain Light Rain
6:02 PM 77.0 °F - 75.2 °F 94% 29.96 in 7.0 mi NE 9.2 mph - 0.00 in Rain Light Rain
6:16 PM 77.0 °F - 73.4 °F 89% 29.96 in 10.0 mi NE 10.4 mph - 0.00 in   Overcast
6:32 PM 77.0 °F - 73.4 °F 89% 29.97 in 10.0 mi NE 9.2 mph 18.4 mph 0.00 in   Overcast
6:40 PM 77.0 °F - 75.2 °F 94% 29.96 in 5.0 mi NE 8.1 mph - 0.01 in Rain Rain
6:51 PM 77.0 °F - 75.0 °F 94% 29.96 in 10.0 mi NNE 8.1 mph - 0.01 in   Overcast
7:27 PM 77.0 °F - 73.4 °F 89% 29.98 in 6.0 mi ESE 13.8 mph 20.7 mph 0.01 in Rain Light Rain
7:33 PM 77.0 °F - 73.4 °F 89% 29.98 in 4.0 mi SE 18.4 mph 23.0 mph 0.01 in Rain Rain
7:36 PM 75.2 °F - 73.4 °F 94% 29.99 in 2.5 mi SE 13.8 mph 23.0 mph 0.03 in Rain Heavy Rain
7:48 PM 75.2 °F - 73.4 °F 94% 29.99 in 2.0 mi SE 10.4 mph - 0.13 in Rain Heavy Rain
7:51 PM 75.9 °F - 73.9 °F 94% 29.99 in 2.0 mi SE 8.1 mph - 0.16 in Rain Heavy Rain
8:08 PM 75.2 °F - 73.4 °F 94% 29.99 in 4.0 mi SSE 8.1 mph - 0.12 in Rain Rain
8:51 PM 75.0 °F - 72.0 °F 90% 30.00 in 10.0 mi ESE 11.5 mph - 0.18 in Rain Light Rain
9:51 PM 75.9 °F - 73.9 °F 94% 30.03 in 10.0 mi SSE 15.0 mph - 0.00 in Rain Light Rain
10:51 PM 75.9 °F - 73.0 °F 91% 30.03 in 10.0 mi SE 6.9 mph 18.4 mph 0.00 in   Mostly Cloudy
11:51 PM 75.9 °F - 72.0 °F 87% 30.01 in 10.0 mi SE 4.6 mph - N/A   Clear